SCP
0 0 0 0 0 0 0 0 0 0 0 0 0 0 0 0 0 0 0 0 0 0 0 0 0 0 0 0 0 0 0 0 0 0 0 0 0 0 0 0 0 0 0 1
0 0 0 0 0 0 0 0 0 0 0 0 0 0 0 0 0 0 0 0 0 0 0 0 0 0 0 0 0 0 0 0 0 0 0 0 0 0 0 0 0 0 0 0
0 0 0 0 0 0 0 0 0 0 0 0 0 0 0 0 0 0 0 0 0 0 0 0 0 0 0 0 0 0 0 0 0 0 0 0 0 0 0 0 0 0 0 0
0 0 0 0 0 0 0 0 0 0 0 0 0 0 0 0 0 0 0 0 0 0 0 0 0 0 0 0 0 0 0 0 0 0 0 0 0 0 0 0 0 0 0 0
0 0 0 0 0 0 0 0 0 0 0 0 0 0 0 0 0 0 0 0 0 0 0 0 0 0 0 0 0 0 0 0 0 0 0 0 0 0 0 0 0 0 0 0
0 0 0 0 0 0 0 0 0 0 0 0 0 0 0 0 0 0 0 0 0 0 0 0 0 0 0 0 0 0 0 0 0 0 0 0 0 0 0 0 0 0 0 0
0 0 0 0 0 0 0 0 0 0 0 0 0 0 0 0 0 0 0 0 0 0 0 0 0 0 0 0 0 0 0 0 0 0 0 0 0 0 0 0 0 0 0 0
0 0 0 0 0 0 0 0 0 0 0 0 0 0 0 0 0 0 0 0 0 0 0 0 0 0 0 0 0 0 0 0 0 0 0 0 0 0 0 0 0 0 0 0
0 0 0 0 0 0 0 0 0 0 0 0 0 0 0 0 0 0 0 0 0 0 0 0 0 0 0 0 0 0 0 0 0 0 0 0 0 0 0 0 0 0 0 0
0 0 0 0 0 0 0 0 0 0 0 0 0 0 0 0 0 0 0 0 0 0 0 0 0 0 0 0 0 0 0 0 0 0 0 0 0 0 0 0 0 0 0 0
0 0 0 0 0 0 0 0 0 0 0 0 0 0 0 0 0 0 0 0 0 0 0 0 0 0 0 0 0 0 0 0 0 0 0 0 0 0 0 0 0 0 0 0
0 0 0 0 0 0 0 0 0 0 0 0 0 0 0 0 0 0 0 0 0 0 0 0 0 0 0 0 0 0 0 0 0 0 0 0 0 0 0 0 0 0 0 0
0 0 0 0 0 0 0 0 0 0 0 0 0 0 0 0 0 0 0 0 0 0 0 0 0 0 0 0 0 0 0 0 0 0 0 0 0 0 0 0 0 0 0 0
0 0 0 0 0 0 0 0 0 0 0 0 0 0 0 0 0 0 0 0 0 0 0 0 0 0 0 0 0 0 0 0 0 0 0 0 0 0 0 0 0 0 0 0
0 0 0 0 0 0 0 0 0 0 0 0 0 0 0 0 0 0 0 0 0 0 0 0 0 0 0 0 0 0 0 0 0 0 0 0 0 0 0 0 0 0 0 0
0 0 0 0 0 0 0 0 0 0 0 0 0 0 0 0 0 0 0 0 0 0 0 0 0 0 0 0 0 0 0 0 0 0 0 0 0 0 0 0 0 0 0 0
0 0 0 0 0 0 0 0 0 0 0 0 0 0 0 0 0 0 0 0 0 0 0 0 0 0 0 0 0 0 0 0 0 0 0 0 0 0 0 0 0 0 0 0
0 0 0 0 0 0 0 0 0 0 0 0 0 0 0 0 0 0 0 0 0 0 0 0 0 0 0 0 0 0 0 0 0 0 0 0 0 0 0 0 0 0 0 0
0 0 0 0 0 0 0 0 0 0 0 0 0 0 0 0 0 0 0 0 0 0 0 0 0 0 0 0 0 0 0 0 0 0 0 0 0 0 0 0 0 0 0 0
0 0 0 0 0 0 0 0 0 0 0 0 0 0 0 0 0 0 0 0 0 0 0 0 0 0 0 0 0 0 0 0 0 0 0 0 0 0 0 0 0 0 0 0
0 0 0 0 0 0 0 0 0 0 0 0 0 0 0 0 0 0 0 0 0 0 0 0 0 0 0 0 0 0 0 0 0 0 0 0 0 0 0 0 0 0 0 0
0 0 0 0 0 0 0 0 0 0 0 0 0 0 0 0 0 0 0 0 0 0 0 0 0 0 0 0 0 0 0 0 0 0 0 0 0 0 0 0 0 0 0 0
0 0 0 0 0 0 0 0 0 0 0 0 0 0 0 0 0 0 0 0 0 0 0 0 0 0 0 0 0 0 0 0 0 0 0 0 0 0 0 0 0 0 0 0
0 0 0 0 0 0 0 0 0 0 0 0 0 0 0 0 0 0 0 0 0 0 0 0 0 0 0 0 0 0 0 0 0 0 0 0 0 0 0 0 0 0 0 0
0 0 0 0 0 0 0 0 0 0 0 0 0 0 0 0 0 0 0 0 0 0 0 0 0 0 0 0 0 0 0 0 0 0 0 0 0 0 0 0 0 0 0 0
0 0 0 0 0 0 0 0 0 0 0 0 0 0 0 0 0 0 0 0 0 0 0 0 0 0 0 0 0 0 0 0 0 0 0 0 0 0 0 0 0 0 0 0
0 0 0 0 0 0 0 0 0 0 0 0 0 0 0 0 0 0 0 0 0 0 0 0 0 0 0 0 0 0 0 0 0 0 0 0 0 0 0 0 0 0 0 0
Wind_Speed
8 7 5 7 8 9 11 11 10 11 12 13 10 8 7 7 6 5 5 4 4 4 4 4 5 5 5 5 4 4 4 4 4 4 4 4 4 4 4 5 5 4 4 4
6 6 7 10 12 12 13 13 15 17 17 12 9 7 7 6 6 5 6 5 5 4 5 5 5 5 5 5 5 4 4 4 3 3 4 4 4 4 5 5 5 4 4 4
5 4 6 10 10 12 11 11 11 14 12 7 8 8 7 6 5 5 6 5 5 5 5 5 5 5 5 5 5 4 4 3 3 3 3 4 4 4 4 4 4 4 4 4
4 3 9 4 1 7 10 11 11 11 11 9 9 8 7 6 6 6 5 5 5 5 5 4 4 4 4 4 4 4 3 3 3 3 3 3 3 4 4 4 4 4 4 4
3 6 10 6 3 4 6 8 7 9 9 7 6 6 5 3 4 5 5 5 5 4 4 4 4 4 4 3 4 3 3 3 3 3 3 3 4 4 4 4 4 4 4 5
4 6 8 3 1 2 3 7 3 5 6 5 3 5 4 2 4 5 4 4 4 3 3 3 3 3 3 3 4 4 3 3 3 3 3 3 4 4 4 4 4 4 4 4
8 8 9 3 3 5 5 4 0 4 5 4 5 6 4 4 4 4 3 3 3 3 3 3 3 3 3 3 4 4 3 3 2 3 3 3 3 3 3 3 4 4 4 4
7 8 9 5 6 7 5 2 2 3 4 5 6 6 6 5 5 4 4 3 3 2 3 3 3 3 3 4 4 3 3 2 3 3 2 2 3 3 3 3 3 3 4 4
9 8 2 6 7 5 3 4 4 4 5 5 6 6 6 6 5 4 3 3 3 3 3 3 3 3 3 4 3 3 2 2 2 3 2 2 3 3 2 2 2 3 3 3
8 10 8 8 8 6 6 6 5 5 5 5 6 6 6 5 5 4 3 3 2 2 3 3 3 3 3 3 3 2 2 2 2 2 2 2 2 2 2 2 3 3 3 3
10 10 8 8 8 8 6 6 5 5 5 6 6 6 5 5 4 4 3 2 2 3 3 4 3 3 3 3 2 2 2 2 2 2 2 2 2 2 3 2 3 4 3 3
9 6 6 6 4 5 6 7 6 6 6 6 6 6 5 5 4 3 3 3 2 3 3 3 3 3 3 2 2 2 2 2 2 2 1 1 2 2 3 3 5 6 6 5
7 4 5 5 4 4 5 6 5 5 6 5 5 4 5 4 3 3 3 3 3 3 3 3 3 3 3 2 2 2 2 2 2 1 1 1 2 2 3 3 4 5 6 6
7 4 5 5 5 4 5 4 4 4 4 4 4 3 3 3 3 3 3 3 3 3 3 3 3 3 2 2 2 2 2 2 2 1 1 1 2 2 2 3 3 3 4 6
8 8 7 4 4 4 3 3 3 3 3 3 2 3 3 3 3 3 3 2 2 2 2 3 3 2 2 1 1 1 1 1 1 1 1 1 1 2 2 2 3 3 3 4
5 6 6 6 6 5 4 4 4 4 4 3 3 3 3 3 3 3 2 2 2 3 3 3 3 2 1 1 1 1 1 1 1 1 1 1 1 1 2 2 2 3 3 3
5 6 7 7 7 6 6 6 5 5 4 4 4 3 2 2 2 2 2 2 2 3 3 3 3 1 1 1 1 1 0 0 1 1 1 1 1 1 2 2 2 2 3 3
8 7 7 7 7 6 6 5 5 4 4 4 3 3 3 3 3 3 2 2 2 2 2 2 1 1 1 1 1 1 0 0 1 1 1 1 1 1 1 1 2 2 2 3
6 6 6 6 6 6 5 5 4 4 3 3 4 4 4 3 3 3 2 2 2 2 2 1 1 1 1 1 1 1 1 0 0 1 1 1 1 1 1 1 2 2 2 2
5 5 4 4 4 4 4 4 4 3 3 4 4 3 3 3 3 3 3 3 3 2 2 2 1 1 1 1 1 1 1 1 0 0 0 1 1 1 1 2 2 2 2 2
4 4 4 4 3 3 4 4 4 4 3 4 4 4 3 3 3 3 3 3 2 2 2 2 1 1 1 1 1 1 1 1 1 0 0 1 1 1 1 2 2 2 2 2
4 4 4 3 3 2 2 3 3 3 3 3 3 3 3 3 3 3 3 3 2 2 1 1 1 1 1 1 1 1 1 1 0 0 0 0 1 1 1 2 2 2 2 2
3 3 3 3 3 2 2 2 3 3 3 3 4 4 4 3 2 3 2 2 2 2 1 1 2 2 2 1 1 1 1 1 0 0 0 0 0 1 1 1 2 2 2 2
3 3 2 2 3 3 2 2 2 2 2 2 3 3 3 2 2 2 1 2 2 2 1 2 3 3 2 1 1 1 1 1 0 0 0 0 0 0 1 1 1 2 2 2
3 3 3 4 3 3 3 2 2 2 2 1 1 2 2 2 2 1 1 2 2 2 1 2 2 2 2 1 1 1 1 1 1 0 0 0 0 0 1 1 1 1 1 2
3 3 3 3 2 2 2 2 2 2 2 1 1 1 1 1 1 1 1 2 2 2 1 1 1 2 1 1 1 1 1 1 0 0 0 0 1 1 1 1 1 1 1 1
2 2 2 2 2 2 2 2 2 2 2 2 2 1 1 1 1 2 2 2 2 2 1 1 1 1 1 1 1 1 1 0 0 0 0 0 1 1 1 1 1 1 1 1
Wind_Direction
262 271 256 249 241 222 221 233 248 264 268 279 291 293 289 289 287 289 294 295 299 307 314 319 322 324 323 319 319 316 310 305 305 307 305 306 308 307 304 300 298 294 295 286
257 253 254 261 254 241 238 242 250 265 273 281 291 286 281 283 283 282 290 293 296 304 309 311 314 316 318 317 315 311 306 305 309 311 312 312 311 311 309 307 306 302 295 292
259 278 272 257 242 228 229 230 237 251 265 287 287 286 285 287 282 275 284 290 294 297 298 303 305 307 308 312 313 310 307 311 313 316 316 314 313 312 310 310 312 312 304 299
272 270 246 260 198 222 233 245 240 257 273 282 288 295 287 278 274 281 286 289 292 293 295 299 301 304 305 307 308 307 305 309 312 313 311 312 313 313 312 312 314 316 315 308
237 257 270 272 230 207 228 259 242 251 269 279 297 292 268 260 266 277 284 287 290 289 287 292 297 304 303 303 305 300 300 305 311 310 308 312 314 315 315 314 314 316 311 314
223 247 256 265 125 160 207 260 228 232 251 269 277 273 293 331 291 290 293 291 293 294 289 290 299 303 298 302 305 302 303 304 303 300 298 302 305 308 311 310 312 315 317 320
228 244 263 260 151 164 220 277 190 222 241 247 245 260 301 303 297 294 291 291 293 290 284 288 297 292 287 295 302 305 308 307 305 299 297 298 302 304 310 313 315 319 318 321
208 229 249 157 158 205 252 331 240 244 246 248 256 271 278 282 285 288 290 292 290 290 290 297 298 285 284 293 304 306 305 303 304 305 305 303 304 307 312 312 311 316 317 323
209 231 273 183 212 240 263 253 254 257 260 253 259 267 271 273 272 271 272 279 282 278 286 297 298 283 280 295 302 301 300 302 305 308 308 307 307 309 315 313 307 313 318 322
248 255 253 244 245 249 248 253 259 260 259 246 252 264 266 266 264 265 267 269 273 276 283 295 300 291 284 291 287 285 295 304 307 307 314 319 316 315 315 315 311 313 317 319
248 262 273 251 237 246 249 250 254 255 252 251 253 259 260 260 259 262 266 265 260 266 276 289 297 295 294 292 278 280 291 299 305 304 308 319 327 330 318 317 314 312 313 317
237 233 229 253 252 241 240 243 245 251 258 257 251 253 255 254 256 258 260 261 265 272 280 291 297 295 297 287 267 264 281 298 298 297 307 319 329 342 355 335 341 336 329 327
245 250 247 263 260 234 236 244 248 248 251 257 254 249 250 253 250 249 255 257 264 274 281 286 291 291 295 287 266 261 274 288 290 291 303 313 318 325 339 353 357 352 350 348
233 229 245 240 244 241 242 249 253 253 249 246 249 247 248 250 249 251 258 264 272 276 276 278 283 286 287 279 262 266 276 286 293 293 297 304 313 320 326 333 338 345 350 355
226 226 239 251 250 241 230 232 246 253 256 251 240 235 237 237 249 262 268 269 273 272 275 278 283 285 287 271 254 261 274 286 299 305 308 311 320 324 330 332 331 331 339 355
228 230 233 233 234 233 229 228 240 251 252 248 246 240 238 242 256 265 264 253 252 265 272 276 278 276 276 265 251 251 267 313 319 307 309 320 328 331 334 336 337 337 345 351
205 223 223 229 232 235 235 233 237 243 242 242 244 243 236 237 250 254 261 264 262 263 263 264 270 267 251 242 241 253 271 293 324 332 337 334 332 331 331 332 336 339 343 346
225 229 222 224 227 234 241 241 237 234 233 236 230 223 224 228 240 251 261 273 273 271 268 256 240 221 217 225 230 224 213 291 322 334 341 341 338 335 330 332 337 343 342 349
218 221 221 222 222 223 228 232 233 229 224 214 213 220 229 237 241 244 245 245 246 256 267 235 218 215 215 222 231 188 176 141 9 351 0 1 355 350 345 344 344 347 345 346
208 205 210 218 218 215 221 224 219 219 214 203 206 215 226 232 226 223 226 242 249 262 253 232 220 211 201 193 213 189 163 147 130 46 17 10 2 359 356 353 352 348 346 349
201 196 201 209 214 215 212 208 203 208 208 199 203 213 223 229 218 214 219 239 254 245 227 215 208 202 188 177 195 170 149 137 129 86 14 10 8 2 359 358 357 350 346 347
197 192 198 198 196 203 202 194 193 196 198 201 205 207 210 218 216 222 235 243 241 241 227 208 205 200 178 168 173 154 140 123 111 98 8 350 355 348 350 351 348 344 340 340
192 190 191 190 188 184 176 181 186 188 195 202 204 205 210 215 216 217 232 219 218 226 220 212 209 185 167 153 156 155 147 144 134 174 273 304 319 321 331 339 336 334 332 335
175 176 179 170 157 159 172 184 176 184 192 206 207 204 201 204 221 229 226 216 225 225 220 206 195 179 157 136 147 156 163 172 181 210 286 316 321 316 315 320 324 328 329 332
171 167 164 164 172 184 182 168 156 161 168 190 204 209 212 216 213 203 196 203 204 197 184 186 180 162 137 136 146 153 166 189 186 179 236 296 292 292 298 308 317 321 324 327
179 184 187 193 194 187 173 171 177 181 178 186 197 202 196 179 177 184 182 176 175 171 163 158 158 150 146 150 148 143 146 167 176 194 253 282 284 283 282 297 310 312 315 323
172 173 173 180 184 181 177 179 184 189 188 186 188 188 175 165 168 170 168 159 152 150 148 141 137 143 145 142 137 134 142 166 202 219 233 259 277 283 288 292 301 310 314 319